Time,TemperatureF,DewpointF,PressureIn,WindDirection,WindDirectionDegrees,WindSpeedMPH,WindSpeedGustMPH,Humidity,HourlyPrecipIn,Conditions,Clouds,dailyrainin,SoftwareType,DateUTC
2013-11-25 00:00:00,22.5,8.0,30.57,ENE,71,0.0,0.0,53,0.00,,,0.00,VWS V14.01,2013-11-25 05:00:00,
2013-11-25 00:01:00,22.5,8.0,30.57,ENE,71,0.0,0.0,53,0.00,,,0.00,VWS V14.01,2013-11-25 05:01:00,
2013-11-25 00:06:00,22.5,8.0,30.57,ENE,71,0.0,0.0,53,0.00,,,0.00,VWS V14.01,2013-11-25 05:06:00,
2013-11-25 00:10:00,22.5,8.0,30.57,ENE,71,0.0,0.0,53,0.00,,,0.00,VWS V14.01,2013-11-25 05:10:00,
2013-11-25 00:11:00,22.5,8.0,30.57,ENE,71,0.0,0.0,53,0.00,,,0.00,VWS V14.01,2013-11-25 05:11:00,
2013-11-25 00:16:00,22.5,8.0,30.57,ENE,71,0.0,0.0,53,0.00,,,0.00,VWS V14.01,2013-11-25 05:16:00,
2013-11-25 00:20:00,22.5,8.0,30.57,ENE,71,0.0,0.0,53,0.00,,,0.00,VWS V14.01,2013-11-25 05:20:00,
2013-11-25 00:21:00,22.5,8.0,30.57,ENE,71,0.0,0.0,53,0.00,,,0.00,VWS V14.01,2013-11-25 05:21:00,
2013-11-25 00:26:00,22.5,8.0,30.57,ENE,71,0.0,0.0,53,0.00,,,0.00,VWS V14.01,2013-11-25 05:26:00,
2013-11-25 00:30:00,22.5,8.0,30.56,ENE,71,0.0,0.0,53,0.00,,,0.00,VWS V14.01,2013-11-25 05:30:00,
2013-11-25 00:31:00,22.5,8.0,30.56,ENE,71,0.0,0.0,53,0.00,,,0.00,VWS V14.01,2013-11-25 05:31:00,
2013-11-25 00:36:00,22.5,8.0,30.56,ENE,71,0.0,0.0,53,0.00,,,0.00,VWS V14.01,2013-11-25 05:36:00,
2013-11-25 00:40:00,22.5,8.0,30.56,ENE,71,0.0,0.0,53,0.00,,,0.00,VWS V14.01,2013-11-25 05:40:00,
2013-11-25 00:41:00,22.4,7.9,30.56,ENE,71,0.0,0.0,53,0.00,,,0.00,VWS V14.01,2013-11-25 05:41:00,
2013-11-25 00:46:00,22.4,7.9,30.56,ENE,71,0.0,0.0,53,0.00,,,0.00,VWS V14.01,2013-11-25 05:46:00,
2013-11-25 00:50:00,22.4,8.3,30.56,ENE,71,0.0,0.0,54,0.00,,,0.00,VWS V14.01,2013-11-25 05:50:00,
2013-11-25 00:51:00,22.4,7.9,30.56,ENE,71,0.0,0.0,53,0.00,,,0.00,VWS V14.01,2013-11-25 05:51:00,
2013-11-25 00:56:00,22.4,7.9,30.56,ENE,71,0.0,0.0,53,0.00,,,0.00,VWS V14.01,2013-11-25 05:56:00,
2013-11-25 01:00:00,22.4,8.3,30.56,ENE,61,0.0,0.0,54,0.00,,,0.00,VWS V14.01,2013-11-25 06:00:00,
2013-11-25 01:01:00,22.4,8.3,30.56,ENE,61,0.0,0.0,54,0.00,,,0.00,VWS V14.01,2013-11-25 06:01:00,
2013-11-25 01:06:00,22.4,8.7,30.56,ENE,61,0.0,0.0,55,0.00,,,0.00,VWS V14.01,2013-11-25 06:06:00,
2013-11-25 01:10:00,22.4,8.3,30.56,East,80,0.0,0.0,54,0.00,,,0.00,VWS V14.01,2013-11-25 06:10:00,
2013-11-25 01:11:00,22.4,8.3,30.56,East,83,0.0,0.0,54,0.00,,,0.00,VWS V14.01,2013-11-25 06:11:00,
2013-11-25 01:16:00,22.4,8.7,30.56,South,182,0.0,0.0,55,0.00,,,0.00,VWS V14.01,2013-11-25 06:16:00,
2013-11-25 01:20:00,22.5,8.4,30.56,ESE,109,0.0,0.0,54,0.00,,,0.00,VWS V14.01,2013-11-25 06:20:00,
2013-11-25 01:21:00,22.5,8.4,30.56,East,98,0.0,0.0,54,0.00,,,0.00,VWS V14.01,2013-11-25 06:21:00,
2013-11-25 01:27:00,22.5,8.4,30.56,East,99,0.0,0.0,54,0.00,,,0.00,VWS V14.01,2013-11-25 06:27:00,
2013-11-25 01:30:00,22.5,8.4,30.56,ENE,72,0.0,0.0,54,0.00,,,0.00,VWS V14.01,2013-11-25 06:30:00,
2013-11-25 01:32:00,22.5,8.8,30.56,ENE,72,0.0,0.0,55,0.00,,,0.00,VWS V14.01,2013-11-25 06:32:00,
2013-11-25 01:37:00,22.5,8.8,30.56,ENE,72,0.0,0.0,55,0.00,,,0.00,VWS V14.01,2013-11-25 06:37:00,
2013-11-25 01:40:00,22.5,8.0,30.56,East,84,0.0,0.0,53,0.00,,,0.00,VWS V14.01,2013-11-25 06:40:00,
2013-11-25 01:42:00,22.7,8.1,30.56,East,84,0.0,0.0,53,0.00,,,0.00,VWS V14.01,2013-11-25 06:42:00,
2013-11-25 01:47:00,22.7,8.6,30.55,East,84,0.0,0.0,54,0.00,,,0.00,VWS V14.01,2013-11-25 06:47:00,
2013-11-25 01:50:00,22.7,8.1,30.55,East,84,0.0,0.0,53,0.00,,,0.00,VWS V14.01,2013-11-25 06:50:00,
2013-11-25 01:52:00,22.7,8.1,30.55,East,84,0.0,0.0,53,0.00,,,0.00,VWS V14.01,2013-11-25 06:52:00,
2013-11-25 01:57:00,22.7,8.1,30.55,East,84,0.0,0.0,53,0.00,,,0.00,VWS V14.01,2013-11-25 06:57:00,
2013-11-25 02:00:00,22.7,8.1,30.55,East,84,0.0,0.0,53,0.00,,,0.00,VWS V14.01,2013-11-25 07:00:00,
2013-11-25 02:02:00,22.7,8.6,30.55,East,81,0.0,0.0,54,0.00,,,0.00,VWS V14.01,2013-11-25 07:02:00,
2013-11-25 02:07:00,22.7,8.1,30.55,East,81,0.0,0.0,53,0.00,,,0.00,VWS V14.01,2013-11-25 07:07:00,
2013-11-25 02:10:00,22.5,8.0,30.55,ENE,78,0.0,0.0,53,0.00,,,0.00,VWS V14.01,2013-11-25 07:10:00,
2013-11-25 02:12:00,22.5,8.0,30.55,East,79,0.0,0.0,53,0.00,,,0.00,VWS V14.01,2013-11-25 07:12:00,
2013-11-25 02:17:00,22.5,8.0,30.54,ENE,78,0.0,0.0,53,0.00,,,0.00,VWS V14.01,2013-11-25 07:17:00,
2013-11-25 02:20:00,22.5,8.0,30.54,ENE,78,0.0,0.0,53,0.00,,,0.00,VWS V14.01,2013-11-25 07:20:00,
2013-11-25 02:22:00,22.4,7.9,30.54,ENE,74,0.0,0.0,53,0.00,,,0.00,VWS V14.01,2013-11-25 07:22:00,
2013-11-25 02:27:00,22.4,8.3,30.54,ENE,74,0.0,0.0,54,0.00,,,0.00,VWS V14.01,2013-11-25 07:27:00,
2013-11-25 02:30:00,22.4,8.7,30.53,East,81,0.0,0.0,55,0.00,,,0.00,VWS V14.01,2013-11-25 07:30:00,
2013-11-25 02:32:00,22.4,7.9,30.53,East,88,0.0,0.0,53,0.00,,,0.00,VWS V14.01,2013-11-25 07:32:00,
2013-11-25 02:37:00,22.4,8.3,30.53,East,84,0.0,0.0,54,0.00,,,0.00,VWS V14.01,2013-11-25 07:37:00,
2013-11-25 02:40:00,22.4,7.9,30.53,East,80,0.0,0.0,53,0.00,,,0.00,VWS V14.01,2013-11-25 07:40:00,
2013-11-25 02:42:00,22.4,7.9,30.53,ENE,75,0.0,0.0,53,0.00,,,0.00,VWS V14.01,2013-11-25 07:42:00,
2013-11-25 02:47:00,22.4,8.3,30.52,East,80,0.0,0.0,54,0.00,,,0.00,VWS V14.01,2013-11-25 07:47:00,
2013-11-25 02:50:00,22.4,8.3,30.52,East,80,0.0,0.0,54,0.00,,,0.00,VWS V14.01,2013-11-25 07:50:00,
2013-11-25 02:52:00,22.4,8.3,30.52,East,80,0.0,0.0,54,0.00,,,0.00,VWS V14.01,2013-11-25 07:52:00,
2013-11-25 02:57:00,22.5,8.4,30.52,East,80,0.0,0.0,54,0.00,,,0.00,VWS V14.01,2013-11-25 07:57:00,
2013-11-25 03:00:00,22.5,8.4,30.53,East,80,0.0,0.0,54,0.00,,,0.00,VWS V14.01,2013-11-25 08:00:00,
2013-11-25 03:02:00,22.5,8.8,30.53,East,80,0.0,0.0,55,0.00,,,0.00,VWS V14.01,2013-11-25 08:02:00,
2013-11-25 03:07:00,22.5,8.8,30.53,East,80,0.0,0.0,55,0.00,,,0.00,VWS V14.01,2013-11-25 08:07:00,
2013-11-25 03:10:00,22.5,8.8,30.53,East,80,0.0,0.0,55,0.00,,,0.00,VWS V14.01,2013-11-25 08:10:00,
2013-11-25 03:12:00,22.5,8.8,30.53,East,80,0.0,0.0,55,0.00,,,0.00,VWS V14.01,2013-11-25 08:12:00,
2013-11-25 03:17:00,22.5,8.0,30.52,East,80,0.0,0.0,53,0.00,,,0.00,VWS V14.01,2013-11-25 08:17:00,
2013-11-25 03:20:00,22.5,8.0,30.52,East,82,0.0,0.0,53,0.00,,,0.00,VWS V14.01,2013-11-25 08:20:00,
2013-11-25 03:22:00,22.5,8.0,30.52,East,82,0.0,0.0,53,0.00,,,0.00,VWS V14.01,2013-11-25 08:22:00,
2013-11-25 03:27:00,22.5,8.4,30.52,East,82,0.0,0.0,54,0.00,,,0.00,VWS V14.01,2013-11-25 08:27:00,
2013-11-25 03:30:00,22.5,8.8,30.52,East,82,0.0,0.0,55,0.00,,,0.00,VWS V14.01,2013-11-25 08:30:00,
2013-11-25 03:32:00,22.7,8.6,30.52,East,82,0.0,0.0,54,0.00,,,0.00,VWS V14.01,2013-11-25 08:32:00,
2013-11-25 03:37:00,22.7,8.6,30.52,East,82,0.0,0.0,54,0.00,,,0.00,VWS V14.01,2013-11-25 08:37:00,
2013-11-25 03:40:00,22.7,8.6,30.52,East,82,0.0,0.0,54,0.00,,,0.00,VWS V14.01,2013-11-25 08:40:00,
2013-11-25 03:42:00,22.7,8.6,30.52,East,82,0.0,0.0,54,0.00,,,0.00,VWS V14.01,2013-11-25 08:42:00,
2013-11-25 03:47:00,22.7,8.6,30.51,East,82,0.0,0.0,54,0.00,,,0.00,VWS V14.01,2013-11-25 08:47:00,
2013-11-25 03:50:00,22.7,8.6,30.51,East,82,0.0,0.0,54,0.00,,,0.00,VWS V14.01,2013-11-25 08:50:00,
2013-11-25 03:52:00,22.7,8.6,30.51,East,82,0.0,0.0,54,0.00,,,0.00,VWS V14.01,2013-11-25 08:52:00,
2013-11-25 03:57:00,22.7,8.1,30.51,East,82,0.0,0.0,53,0.00,,,0.00,VWS V14.01,2013-11-25 08:57:00,
2013-11-25 04:00:00,22.7,8.6,30.50,East,82,0.0,0.0,54,0.00,,,0.00,VWS V14.01,2013-11-25 09:00:00,
2013-11-25 04:02:00,22.9,8.3,30.50,East,82,0.0,0.0,53,0.00,,,0.00,VWS V14.01,2013-11-25 09:02:00,
2013-11-25 04:07:00,22.9,8.3,30.50,East,82,0.0,0.0,53,0.00,,,0.00,VWS V14.01,2013-11-25 09:07:00,
2013-11-25 04:10:00,22.9,8.8,30.50,East,82,0.0,0.0,54,0.00,,,0.00,VWS V14.01,2013-11-25 09:10:00,
2013-11-25 04:20:00,23.0,8.9,30.50,East,82,0.0,0.0,54,0.00,,,0.00,VWS V14.01,2013-11-25 09:20:00,
2013-11-25 04:22:00,23.0,8.4,30.50,East,82,0.0,0.0,53,0.00,,,0.00,VWS V14.01,2013-11-25 09:22:00,
2013-11-25 04:30:00,23.0,8.4,30.50,East,82,0.0,0.0,53,0.00,,,0.00,VWS V14.01,2013-11-25 09:30:00,
2013-11-25 04:37:00,23.0,8.0,30.50,East,82,0.0,0.0,52,0.00,,,0.00,VWS V14.01,2013-11-25 09:37:00,
2013-11-25 04:40:00,23.2,8.6,30.50,East,82,0.0,0.0,53,0.00,,,0.00,VWS V14.01,2013-11-25 09:40:00,
2013-11-25 04:50:00,23.3,8.7,30.49,East,82,0.0,0.0,53,0.00,,,0.00,VWS V14.01,2013-11-25 09:50:00,
2013-11-25 04:52:00,23.3,7.9,30.49,East,82,0.0,0.0,51,0.00,,,0.00,VWS V14.01,2013-11-25 09:52:00,
2013-11-25 05:00:00,23.3,7.9,30.49,East,82,0.0,0.0,51,0.00,,,0.00,VWS V14.01,2013-11-25 10:00:00,
2013-11-25 05:07:00,23.3,8.3,30.49,East,84,0.0,0.0,52,0.00,,,0.00,VWS V14.01,2013-11-25 10:07:00,
2013-11-25 05:10:00,23.3,8.3,30.49,East,84,0.0,0.0,52,0.00,,,0.00,VWS V14.01,2013-11-25 10:10:00,
2013-11-25 05:18:00,23.0,8.4,30.50,East,82,0.0,0.0,53,0.00,,,0.00,VWS V14.01,2013-11-25 10:18:00,
2013-11-25 05:20:00,23.3,8.3,30.48,East,86,0.0,0.0,52,0.00,,,0.00,VWS V14.01,2013-11-25 10:20:00,
2013-11-25 05:22:00,23.3,8.3,30.48,SE,125,0.0,0.0,52,0.00,,,0.00,VWS V14.01,2013-11-25 10:22:00,
2013-11-25 05:23:00,23.0,8.4,30.50,East,82,0.0,0.0,53,0.00,,,0.00,VWS V14.01,2013-11-25 10:23:00,
2013-11-25 05:30:00,23.5,8.1,30.47,East,97,0.0,0.0,51,0.00,,,0.00,VWS V14.01,2013-11-25 10:30:00,
2013-11-25 05:33:00,23.0,8.4,30.50,East,82,0.0,0.0,53,0.00,,,0.00,VWS V14.01,2013-11-25 10:33:00,
2013-11-25 05:37:00,23.5,8.5,30.47,SE,135,0.0,0.0,52,0.00,,,0.00,VWS V14.01,2013-11-25 10:37:00,
2013-11-25 05:38:00,23.0,8.4,30.50,East,82,0.0,0.0,53,0.00,,,0.00,VWS V14.01,2013-11-25 10:38:00,
2013-11-25 05:40:00,23.5,8.5,30.47,East,99,0.0,0.0,52,0.00,,,0.00,VWS V14.01,2013-11-25 10:40:00,
2013-11-25 05:45:00,23.2,8.6,30.50,East,82,0.0,0.0,53,0.00,,,0.00,VWS V14.01,2013-11-25 10:45:00,
2013-11-25 05:47:00,23.5,8.5,30.47,ESE,111,0.0,0.0,52,0.00,,,0.00,VWS V14.01,2013-11-25 10:47:00,
2013-11-25 05:50:00,23.5,8.9,30.47,SSE,155,0.0,0.0,53,0.00,,,0.00,VWS V14.01,2013-11-25 10:50:00,
2013-11-25 05:53:00,23.2,8.2,30.49,East,82,0.0,0.0,52,0.00,,,0.00,VWS V14.01,2013-11-25 10:53:00,
2013-11-25 06:00:00,23.3,9.1,30.47,SE,132,0.0,0.0,54,0.00,,,0.00,VWS V14.01,2013-11-25 11:00:00,
2013-11-25 06:03:00,23.3,7.9,30.49,East,82,0.0,0.0,51,0.00,,,0.00,VWS V14.01,2013-11-25 11:03:00,
2013-11-25 06:08:00,23.3,7.9,30.49,East,84,0.0,0.0,51,0.00,,,0.00,VWS V14.01,2013-11-25 11:08:00,
2013-11-25 06:10:00,23.3,9.5,30.47,SE,142,0.0,0.0,55,0.00,,,0.00,VWS V14.01,2013-11-25 11:10:00,
2013-11-25 06:18:00,23.3,8.3,30.49,East,85,0.0,0.0,52,0.00,,,0.00,VWS V14.01,2013-11-25 11:18:00,
2013-11-25 06:20:00,23.5,10.1,30.47,ESE,117,0.0,0.0,56,0.00,,,0.00,VWS V14.01,2013-11-25 11:20:00,
2013-11-25 06:22:00,23.5,10.1,30.47,ESE,117,0.0,0.0,56,0.00,,,0.00,VWS V14.01,2013-11-25 11:22:00,
2013-11-25 06:23:00,23.3,8.3,30.48,East,86,0.0,0.0,52,0.00,,,0.00,VWS V14.01,2013-11-25 11:23:00,
2013-11-25 06:30:00,23.6,9.8,30.47,SSE,150,0.0,0.0,55,0.00,,,0.00,VWS V14.01,2013-11-25 11:30:00,
2013-11-25 06:32:00,23.6,9.4,30.47,SE,134,0.0,0.0,54,0.00,,,0.00,VWS V14.01,2013-11-25 11:32:00,
2013-11-25 06:33:00,23.5,8.1,30.48,ESE,104,0.0,0.0,51,0.00,,,0.00,VWS V14.01,2013-11-25 11:33:00,
2013-11-25 06:37:00,23.6,9.8,30.47,SSE,152,0.0,0.0,55,0.00,,,0.00,VWS V14.01,2013-11-25 11:37:00,
2013-11-25 06:38:00,23.5,8.1,30.47,SE,142,0.0,0.0,51,0.00,,,0.00,VWS V14.01,2013-11-25 11:38:00,
2013-11-25 06:40:00,23.6,9.4,30.47,SE,146,0.0,0.0,54,0.00,,,0.00,VWS V14.01,2013-11-25 11:40:00,
2013-11-25 06:48:00,23.5,8.5,30.47,SE,126,0.0,0.0,52,0.00,,,0.00,VWS V14.01,2013-11-25 11:48:00,
2013-11-25 06:50:00,23.5,9.7,30.47,SE,146,0.0,0.0,55,0.00,,,0.00,VWS V14.01,2013-11-25 11:50:00,
2013-11-25 06:56:00,23.5,8.9,30.47,SSE,155,0.0,0.0,53,0.00,,,0.00,VWS V14.01,2013-11-25 11:56:00,
2013-11-25 07:00:00,23.6,10.2,30.47,SE,136,0.0,0.0,56,0.00,,,0.00,VWS V14.01,2013-11-25 12:00:00,
2013-11-25 07:03:00,23.5,9.3,30.47,ESE,111,0.0,0.0,54,0.00,,,0.00,VWS V14.01,2013-11-25 12:03:00,
2013-11-25 07:08:00,23.3,9.5,30.47,SSE,150,0.0,0.0,55,0.00,,,0.00,VWS V14.01,2013-11-25 12:08:00,
2013-11-25 07:10:00,23.9,10.1,30.47,SSE,148,0.0,0.0,55,0.00,,,0.00,VWS V14.01,2013-11-25 12:10:00,
2013-11-25 07:13:00,23.3,9.5,30.47,SE,144,0.0,0.0,55,0.00,,,0.00,VWS V14.01,2013-11-25 12:13:00,
2013-11-25 07:18:00,23.3,9.5,30.47,SE,136,0.0,0.0,55,0.00,,,0.00,VWS V14.01,2013-11-25 12:18:00,
2013-11-25 07:20:00,24.4,9.7,30.47,SE,142,0.0,0.0,53,0.00,,,0.00,VWS V14.01,2013-11-25 12:20:00,
2013-11-25 07:23:00,23.5,9.7,30.47,SE,144,0.0,0.0,55,0.00,,,0.00,VWS V14.01,2013-11-25 12:23:00,
2013-11-25 07:30:00,24.8,10.1,30.47,SE,138,0.0,0.0,53,0.00,,,0.00,VWS V14.01,2013-11-25 12:30:00,
2013-11-25 07:33:00,23.5,10.1,30.47,SSE,159,0.0,0.0,56,0.00,,,0.00,VWS V14.01,2013-11-25 12:33:00,
2013-11-25 07:40:00,25.3,10.6,30.47,SSE,148,0.0,0.0,53,0.00,,,0.00,VWS V14.01,2013-11-25 12:40:00,
2013-11-25 07:48:00,23.6,9.4,30.47,SSE,148,0.0,0.0,54,0.00,,,0.00,VWS V14.01,2013-11-25 12:48:00,
2013-11-25 07:50:00,26.3,10.6,30.46,East,96,0.0,0.0,51,0.00,,,0.00,VWS V14.01,2013-11-25 12:50:00,
2013-11-25 07:55:00,23.5,9.7,30.47,SE,146,0.0,0.0,55,0.00,,,0.00,VWS V14.01,2013-11-25 12:55:00,
2013-11-25 08:00:00,26.7,10.6,30.47,SSE,155,0.0,0.0,50,0.00,,,0.00,VWS V14.01,2013-11-25 13:00:00,
2013-11-25 08:03:00,23.6,9.8,30.47,SSE,153,0.0,0.0,55,0.00,,,0.00,VWS V14.01,2013-11-25 13:03:00,
2013-11-25 08:08:00,23.6,9.8,30.47,ESE,108,0.0,0.0,55,0.00,,,0.00,VWS V14.01,2013-11-25 13:08:00,
2013-11-25 08:10:00,27.0,10.4,30.47,SSE,149,0.0,0.0,49,0.00,,,0.00,VWS V14.01,2013-11-25 13:10:00,
2013-11-25 08:13:00,23.8,10.0,30.47,SE,143,0.0,0.0,55,0.00,,,0.00,VWS V14.01,2013-11-25 13:13:00,
2013-11-25 08:18:00,24.1,10.3,30.47,SE,140,0.0,0.0,55,0.00,,,0.00,VWS V14.01,2013-11-25 13:18:00,
2013-11-25 08:20:00,27.3,10.7,30.47,SSE,148,0.0,0.0,49,0.00,,,0.00,VWS V14.01,2013-11-25 13:20:00,
2013-11-25 08:23:00,24.4,10.1,30.47,SSE,164,0.0,0.0,54,0.00,,,0.00,VWS V14.01,2013-11-25 13:23:00,
2013-11-25 08:28:00,24.5,10.2,30.47,SE,142,0.0,0.0,54,0.00,,,0.00,VWS V14.01,2013-11-25 13:28:00,
2013-11-25 08:30:00,27.9,11.2,30.47,SSE,156,0.0,0.0,49,0.00,,,0.00,VWS V14.01,2013-11-25 13:30:00,
2013-11-25 08:34:00,24.7,10.0,30.47,SE,138,0.0,0.0,53,0.00,,,0.00,VWS V14.01,2013-11-25 13:34:00,
2013-11-25 08:38:00,28.4,11.7,30.47,SSE,153,0.0,0.0,49,0.00,,,0.00,VWS V14.01,2013-11-25 13:38:00,
2013-11-25 08:39:00,25.0,10.3,30.47,SE,142,0.0,0.0,53,0.00,,,0.00,VWS V14.01,2013-11-25 13:39:00,
2013-11-25 08:40:00,28.5,11.3,30.47,SE,132,0.0,0.0,48,0.00,,,0.00,VWS V14.01,2013-11-25 13:40:00,
2013-11-25 08:44:00,25.3,10.6,30.47,SSE,148,0.0,0.0,53,0.00,,,0.00,VWS V14.01,2013-11-25 13:44:00,
2013-11-25 08:49:00,25.6,9.6,30.47,SSE,151,0.0,0.0,50,0.00,,,0.00,VWS V14.01,2013-11-25 13:49:00,
2013-11-25 08:50:00,29.5,11.8,30.45,South,181,0.0,0.0,47,0.00,,,0.00,VWS V14.01,2013-11-25 13:50:00,
2013-11-25 08:54:00,26.1,10.5,30.46,SSE,152,0.0,0.0,51,0.00,,,0.00,VWS V14.01,2013-11-25 13:54:00,
2013-11-25 08:59:00,26.4,10.3,30.46,SE,141,0.0,0.0,50,0.00,,,0.00,VWS V14.01,2013-11-25 13:59:00,
2013-11-25 09:00:00,31.0,11.7,30.45,SE,140,0.0,0.0,44,0.00,,,0.00,VWS V14.01,2013-11-25 14:00:00,
2013-11-25 09:04:00,26.6,10.0,30.46,SSE,155,0.0,0.0,49,0.00,,,0.00,VWS V14.01,2013-11-25 14:04:00,
2013-11-25 09:09:00,26.9,9.9,30.47,SSE,154,0.0,0.0,48,0.00,,,0.00,VWS V14.01,2013-11-25 14:09:00,
2013-11-25 09:10:00,32.2,12.2,30.45,SSE,167,0.0,0.0,43,0.00,,,0.00,VWS V14.01,2013-11-25 14:10:00,
2013-11-25 09:14:00,27.0,10.4,30.47,SSE,168,0.0,0.0,49,0.00,,,0.00,VWS V14.01,2013-11-25 14:14:00,
2013-11-25 09:19:00,27.2,11.0,30.47,SSE,154,0.0,0.0,50,0.00,,,0.00,VWS V14.01,2013-11-25 14:19:00,
2013-11-25 09:20:00,33.4,12.2,30.45,SSW,193,0.0,0.0,41,0.00,,,0.00,VWS V14.01,2013-11-25 14:20:00,
2013-11-25 09:24:00,27.3,10.7,30.47,SE,143,0.0,0.0,49,0.00,,,0.00,VWS V14.01,2013-11-25 14:24:00,
2013-11-25 09:29:00,27.5,11.3,30.47,SSE,165,0.0,0.0,50,0.00,,,0.00,VWS V14.01,2013-11-25 14:29:00,
2013-11-25 09:30:00,34.1,12.3,30.45,SSW,207,0.0,0.0,40,0.00,,,0.00,VWS V14.01,2013-11-25 14:30:00,
2013-11-25 09:34:00,27.8,11.1,30.47,SSE,165,0.0,0.0,49,0.00,,,0.00,VWS V14.01,2013-11-25 14:34:00,
2013-11-25 09:39:00,28.1,10.9,30.47,South,171,0.0,0.0,48,0.00,,,0.00,VWS V14.01,2013-11-25 14:39:00,
2013-11-25 09:40:00,35.0,13.1,30.45,SSW,196,0.0,0.0,40,0.00,,,0.00,VWS V14.01,2013-11-25 14:40:00,
2013-11-25 09:46:00,28.5,11.3,30.47,SE,132,0.0,0.0,48,0.00,,,0.00,VWS V14.01,2013-11-25 14:46:00,
2013-11-25 09:50:00,35.9,12.2,30.43,South,189,0.0,0.0,37,0.00,,,0.00,VWS V14.01,2013-11-25 14:50:00,
2013-11-25 09:54:00,29.4,11.7,30.45,SE,144,0.0,0.0,47,0.00,,,0.00,VWS V14.01,2013-11-25 14:54:00,
2013-11-25 09:59:00,29.7,11.0,30.45,SSE,159,0.0,0.0,45,0.00,,,0.00,VWS V14.01,2013-11-25 14:59:00,
2013-11-25 10:00:00,35.9,12.8,30.43,SSW,211,0.0,0.0,38,0.00,,,0.00,VWS V14.01,2013-11-25 15:00:00,
2013-11-25 10:04:00,30.7,12.4,30.45,SSE,163,0.0,0.0,46,0.00,,,0.00,VWS V14.01,2013-11-25 15:04:00,
2013-11-25 10:09:00,31.3,11.9,30.45,South,169,0.0,0.0,44,0.00,,,0.00,VWS V14.01,2013-11-25 15:09:00,
2013-11-25 10:10:00,36.0,13.5,30.43,SSW,211,0.0,0.0,39,0.00,,,0.00,VWS V14.01,2013-11-25 15:10:00,
2013-11-25 10:14:00,31.9,12.5,30.45,SSE,168,0.0,0.0,44,0.00,,,0.00,VWS V14.01,2013-11-25 15:14:00,
2013-11-25 10:19:00,32.4,11.9,30.45,South,184,0.0,0.0,42,0.00,,,0.00,VWS V14.01,2013-11-25 15:19:00,
2013-11-25 10:20:00,36.9,13.7,30.43,SSW,205,0.0,0.0,38,0.00,,,0.00,VWS V14.01,2013-11-25 15:20:00,
2013-11-25 10:24:00,33.1,13.1,30.45,SSW,205,0.0,0.0,43,0.00,,,0.00,VWS V14.01,2013-11-25 15:24:00,
2013-11-25 10:29:00,33.8,12.1,30.45,SW,221,0.0,0.0,40,0.00,,,0.00,VWS V14.01,2013-11-25 15:29:00,
2013-11-25 10:30:00,37.3,13.4,30.42,SW,214,0.0,0.0,37,0.00,,,0.00,VWS V14.01,2013-11-25 15:30:00,
2013-11-25 10:34:00,34.1,11.8,30.45,SSW,203,0.0,0.0,39,0.00,,,0.00,VWS V14.01,2013-11-25 15:34:00,
2013-11-25 10:40:00,36.6,14.6,30.42,WSW,253,0.0,0.0,40,0.00,,,0.00,VWS V14.01,2013-11-25 15:40:00,
2013-11-25 10:44:00,34.7,12.9,30.45,SW,226,0.0,0.0,40,0.00,,,0.00,VWS V14.01,2013-11-25 15:44:00,
2013-11-25 10:49:00,35.6,13.1,30.45,SSW,212,0.0,0.0,39,0.00,,,0.00,VWS V14.01,2013-11-25 15:49:00,
2013-11-25 10:50:00,36.9,14.9,30.42,SSE,161,0.0,0.0,40,0.00,,,0.00,VWS V14.01,2013-11-25 15:50:00,
2013-11-25 10:54:00,36.0,12.9,30.43,SSE,162,0.0,0.0,38,0.00,,,0.00,VWS V14.01,2013-11-25 15:54:00,
2013-11-25 10:59:00,35.8,13.3,30.43,SW,225,0.0,0.0,39,0.00,,,0.00,VWS V14.01,2013-11-25 15:59:00,
2013-11-25 11:00:00,37.3,14.6,30.42,SSE,160,0.0,0.0,39,0.00,,,0.00,VWS V14.01,2013-11-25 16:00:00,
2013-11-25 11:04:00,35.9,12.8,30.43,SW,229,0.0,0.0,38,0.00,,,0.00,VWS V14.01,2013-11-25 16:04:00,
2013-11-25 11:09:00,35.8,12.7,30.43,SW,227,0.0,0.0,38,0.00,,,0.00,VWS V14.01,2013-11-25 16:09:00,
2013-11-25 11:10:00,37.6,14.9,30.42,SSW,200,0.0,0.0,39,0.00,,,0.00,VWS V14.01,2013-11-25 16:10:00,
2013-11-25 11:14:00,35.9,13.4,30.43,SSW,211,0.0,0.0,39,0.00,,,0.00,VWS V14.01,2013-11-25 16:14:00,
2013-11-25 11:19:00,36.5,13.3,30.43,SSW,208,0.0,0.0,38,0.00,,,0.00,VWS V14.01,2013-11-25 16:19:00,
2013-11-25 11:20:00,37.9,14.0,30.40,SW,225,0.0,0.0,37,0.00,,,0.00,VWS V14.01,2013-11-25 16:20:00,
2013-11-25 11:24:00,36.9,13.1,30.43,SSW,200,0.0,0.0,37,0.00,,,0.00,VWS V14.01,2013-11-25 16:24:00,
2013-11-25 11:29:00,37.0,14.4,30.43,SW,216,0.0,0.0,39,0.00,,,0.00,VWS V14.01,2013-11-25 16:29:00,
2013-11-25 11:30:00,38.2,13.6,30.38,South,191,0.0,0.0,36,0.00,,,0.00,VWS V14.01,2013-11-25 16:30:00,
2013-11-25 11:34:00,37.3,13.4,30.43,SSW,205,0.0,0.0,37,0.00,,,0.00,VWS V14.01,2013-11-25 16:34:00,
2013-11-25 11:39:00,37.2,13.9,30.42,South,186,0.0,0.0,38,0.00,,,0.00,VWS V14.01,2013-11-25 16:39:00,
2013-11-25 11:40:00,38.5,14.5,30.38,SSW,195,0.0,0.0,37,0.00,,,0.00,VWS V14.01,2013-11-25 16:40:00,
2013-11-25 11:44:00,36.8,13.6,30.42,SSE,164,0.0,0.0,38,0.00,,,0.00,VWS V14.01,2013-11-25 16:44:00,
2013-11-25 11:49:00,36.6,14.6,30.42,South,172,0.0,0.0,40,0.00,,,0.00,VWS V14.01,2013-11-25 16:49:00,
2013-11-25 11:50:00,39.2,15.1,30.38,SSW,198,0.0,0.0,37,0.00,,,0.00,VWS V14.01,2013-11-25 16:50:00,
2013-11-25 11:54:00,36.8,14.8,30.42,SW,215,0.0,0.0,40,0.00,,,0.00,VWS V14.01,2013-11-25 16:54:00,
2013-11-25 11:59:00,37.0,14.4,30.42,South,189,0.0,0.0,39,0.00,,,0.00,VWS V14.01,2013-11-25 16:59:00,
2013-11-25 12:00:00,39.5,14.8,30.37,SW,217,0.0,0.0,36,0.00,,,0.00,VWS V14.01,2013-11-25 17:00:00,
2013-11-25 12:04:00,37.2,14.5,30.42,South,187,0.0,0.0,39,0.00,,,0.00,VWS V14.01,2013-11-25 17:04:00,
2013-11-25 12:09:00,37.5,13.6,30.42,South,169,0.0,0.0,37,0.00,,,0.00,VWS V14.01,2013-11-25 17:09:00,
2013-11-25 12:10:00,40.2,12.7,30.37,SW,224,0.0,0.0,32,0.00,,,0.00,VWS V14.01,2013-11-25 17:10:00,
2013-11-25 12:14:00,37.6,14.9,30.42,SSE,148,0.0,0.0,39,0.00,,,0.00,VWS V14.01,2013-11-25 17:14:00,
2013-11-25 12:19:00,37.9,14.0,30.42,SSW,213,0.0,0.0,37,0.00,,,0.00,VWS V14.01,2013-11-25 17:19:00,
2013-11-25 12:20:00,40.3,12.1,30.36,South,190,0.0,0.0,31,0.00,,,0.00,VWS V14.01,2013-11-25 17:20:00,
2013-11-25 12:24:00,37.9,14.0,30.40,SSW,209,0.0,0.0,37,0.00,,,0.00,VWS V14.01,2013-11-25 17:24:00,
2013-11-25 12:29:00,37.9,14.0,30.40,SW,218,0.0,0.0,37,0.00,,,0.00,VWS V14.01,2013-11-25 17:29:00,
2013-11-25 12:30:00,40.8,12.5,30.35,SW,217,0.0,0.0,31,0.00,,,0.00,VWS V14.01,2013-11-25 17:30:00,
2013-11-25 12:34:00,38.2,14.2,30.40,South,186,0.0,0.0,37,0.00,,,0.00,VWS V14.01,2013-11-25 17:34:00,
2013-11-25 12:39:00,38.2,14.2,30.38,South,175,0.0,0.0,37,0.00,,,0.00,VWS V14.01,2013-11-25 17:39:00,
2013-11-25 12:40:00,41.2,12.9,30.35,SSW,211,0.0,0.0,31,0.00,,,0.00,VWS V14.01,2013-11-25 17:40:00,
2013-11-25 12:44:00,38.3,14.3,30.38,SSW,195,0.0,0.0,37,0.00,,,0.00,VWS V14.01,2013-11-25 17:44:00,
2013-11-25 12:49:00,38.8,14.1,30.38,SSW,213,0.0,0.0,36,0.00,,,0.00,VWS V14.01,2013-11-25 17:49:00,
2013-11-25 12:50:00,41.3,13.0,30.35,SW,232,0.0,0.0,31,0.00,,,0.00,VWS V14.01,2013-11-25 17:50:00,
2013-11-25 12:54:00,39.1,14.4,30.38,SSW,202,0.0,0.0,36,0.00,,,0.00,VWS V14.01,2013-11-25 17:54:00,
2013-11-25 12:59:00,39.3,13.9,30.38,South,181,0.0,0.0,35,0.00,,,0.00,VWS V14.01,2013-11-25 17:59:00,
2013-11-25 13:00:00,41.2,12.9,30.35,SW,216,0.0,0.0,31,0.00,,,0.00,VWS V14.01,2013-11-25 18:00:00,
2013-11-25 13:04:00,39.5,14.8,30.38,SW,219,0.0,0.0,36,0.00,,,0.00,VWS V14.01,2013-11-25 18:04:00,
2013-11-25 13:09:00,39.8,14.4,30.37,SSW,209,0.0,0.0,35,0.00,,,0.00,VWS V14.01,2013-11-25 18:09:00,
2013-11-25 13:10:00,41.1,13.5,30.35,SSW,211,0.0,0.0,32,0.00,,,0.00,VWS V14.01,2013-11-25 18:10:00,
2013-11-25 13:14:00,40.1,14.0,30.37,SSW,193,0.0,0.0,34,0.00,,,0.00,VWS V14.01,2013-11-25 18:14:00,
2013-11-25 13:19:00,40.3,12.1,30.37,SSW,211,0.0,0.0,31,0.00,,,0.00,VWS V14.01,2013-11-25 18:19:00,
2013-11-25 13:20:00,41.3,13.7,30.35,South,190,0.0,0.0,32,0.00,,,0.00,VWS V14.01,2013-11-25 18:20:00,
2013-11-25 13:24:00,40.3,12.8,30.36,SSW,194,0.0,0.0,32,0.00,,,0.00,VWS V14.01,2013-11-25 18:24:00,
2013-11-25 13:29:00,40.5,12.3,30.36,SSW,198,0.0,0.0,31,0.00,,,0.00,VWS V14.01,2013-11-25 18:29:00,
2013-11-25 13:30:00,41.2,13.6,30.34,SSW,205,0.0,0.0,32,0.00,,,0.00,VWS V14.01,2013-11-25 18:30:00,
2013-11-25 13:34:00,40.8,12.5,30.36,SSW,207,0.0,0.0,31,0.00,,,0.00,VWS V14.01,2013-11-25 18:34:00,
2013-11-25 13:39:00,41.1,13.5,30.35,South,175,0.0,0.0,32,0.00,,,0.00,VWS V14.01,2013-11-25 18:39:00,
2013-11-25 13:40:00,41.3,14.4,30.34,SSW,208,0.0,0.0,33,0.00,,,0.00,VWS V14.01,2013-11-25 18:40:00,
2013-11-25 13:44:00,41.2,12.9,30.35,SSW,206,0.0,0.0,31,0.00,,,0.00,VWS V14.01,2013-11-25 18:44:00,
2013-11-25 13:49:00,41.3,13.0,30.35,SW,214,0.0,0.0,31,0.00,,,0.00,VWS V14.01,2013-11-25 18:49:00,
2013-11-25 13:50:00,41.5,13.9,30.34,SSW,199,0.0,0.0,32,0.00,,,0.00,VWS V14.01,2013-11-25 18:50:00,
2013-11-25 13:54:00,41.3,13.0,30.35,SW,217,0.0,0.0,31,0.00,,,0.00,VWS V14.01,2013-11-25 18:54:00,
2013-11-25 13:59:00,41.3,13.0,30.35,SSW,210,0.0,0.0,31,0.00,,,0.00,VWS V14.01,2013-11-25 18:59:00,
2013-11-25 14:00:00,41.5,13.9,30.33,SSW,205,0.0,0.0,32,0.00,,,0.00,VWS V14.01,2013-11-25 19:00:00,
2013-11-25 14:04:00,41.3,13.7,30.35,SW,222,0.0,0.0,32,0.00,,,0.00,VWS V14.01,2013-11-25 19:04:00,
2013-11-25 14:09:00,41.2,12.9,30.35,SW,230,0.0,0.0,31,0.00,,,0.00,VWS V14.01,2013-11-25 19:09:00,
2013-11-25 14:10:00,41.8,14.1,30.33,SW,219,0.0,0.0,32,0.00,,,0.00,VWS V14.01,2013-11-25 19:10:00,
2013-11-25 14:14:00,41.1,13.5,30.35,SSW,211,0.0,0.0,32,0.00,,,0.00,VWS V14.01,2013-11-25 19:14:00,
2013-11-25 14:19:00,41.2,13.6,30.35,SW,219,0.0,0.0,32,0.00,,,0.00,VWS V14.01,2013-11-25 19:19:00,
2013-11-25 14:20:00,41.8,14.8,30.34,SSW,206,0.0,0.0,33,0.00,,,0.00,VWS V14.01,2013-11-25 19:20:00,
2013-11-25 14:25:00,41.3,13.7,30.35,SSW,213,0.0,0.0,32,0.00,,,0.00,VWS V14.01,2013-11-25 19:25:00,
2013-11-25 14:30:00,41.2,13.6,30.35,SSW,205,0.0,0.0,32,0.00,,,0.00,VWS V14.01,2013-11-25 19:30:00,
2013-11-25 14:35:00,41.2,13.6,30.35,SW,223,0.0,0.0,32,0.00,,,0.00,VWS V14.01,2013-11-25 19:35:00,
2013-11-25 14:40:00,41.2,13.6,30.34,SW,227,0.0,0.0,32,0.00,,,0.00,VWS V14.01,2013-11-25 19:40:00,
2013-11-25 14:45:00,41.2,13.6,30.34,SSW,207,0.0,0.0,32,0.00,,,0.00,VWS V14.01,2013-11-25 19:45:00,
2013-11-25 14:50:00,41.3,13.7,30.34,SSW,211,0.0,0.0,32,0.00,,,0.00,VWS V14.01,2013-11-25 19:50:00,
2013-11-25 14:55:00,41.5,13.1,30.34,SSW,202,0.0,0.0,31,0.00,,,0.00,VWS V14.01,2013-11-25 19:55:00,
2013-11-25 15:00:00,41.5,14.6,30.34,SSW,210,0.0,0.0,33,0.00,,,0.00,VWS V14.01,2013-11-25 20:00:00,
2013-11-25 15:05:00,41.5,14.6,30.33,SW,217,0.0,0.0,33,0.00,,,0.00,VWS V14.01,2013-11-25 20:05:00,
2013-11-25 15:10:00,41.6,14.6,30.33,SW,219,0.0,0.0,33,0.00,,,0.00,VWS V14.01,2013-11-25 20:10:00,
2013-11-25 15:15:00,41.8,14.1,30.33,SW,218,0.0,0.0,32,0.00,,,0.00,VWS V14.01,2013-11-25 20:15:00,
2013-11-25 15:20:00,41.8,14.8,30.34,SW,226,0.0,0.0,33,0.00,,,0.00,VWS V14.01,2013-11-25 20:20:00,
2013-11-25 15:25:00,41.8,14.1,30.34,SSW,206,0.0,0.0,32,0.00,,,0.00,VWS V14.01,2013-11-25 20:25:00,
2013-11-25 15:30:00,41.9,14.9,30.34,SW,222,0.0,0.0,33,0.00,,,0.00,VWS V14.01,2013-11-25 20:30:00,
2013-11-25 15:35:00,41.9,14.2,30.33,SW,224,0.0,0.0,32,0.00,,,0.00,VWS V14.01,2013-11-25 20:35:00,
2013-11-25 15:40:00,41.9,14.2,30.33,SSW,208,0.0,0.0,32,0.00,,,0.00,VWS V14.01,2013-11-25 20:40:00,
2013-11-25 15:45:00,42.1,13.7,30.33,SW,224,0.0,0.0,31,0.00,,,0.00,VWS V14.01,2013-11-25 20:45:00,
2013-11-25 15:50:00,42.1,12.9,30.33,WSW,238,0.0,0.0,30,0.00,,,0.00,VWS V14.01,2013-11-25 20:50:00,
2013-11-25 15:55:00,42.1,12.9,30.33,SW,225,0.0,0.0,30,0.00,,,0.00,VWS V14.01,2013-11-25 20:55:00,
2013-11-25 16:00:00,42.1,12.9,30.33,SW,219,0.0,0.0,30,0.00,,,0.00,VWS V14.01,2013-11-25 21:00:00,
2013-11-25 16:05:00,41.9,12.0,30.33,SW,224,0.0,0.0,29,0.00,,,0.00,VWS V14.01,2013-11-25 21:05:00,
2013-11-25 16:10:00,41.9,12.7,30.33,SW,236,0.0,0.0,30,0.00,,,0.00,VWS V14.01,2013-11-25 21:10:00,
2013-11-25 16:15:00,41.9,12.7,30.33,WSW,247,0.0,0.0,30,0.00,,,0.00,VWS V14.01,2013-11-25 21:15:00,
2013-11-25 16:20:00,41.8,13.4,30.34,SW,222,0.0,0.0,31,0.00,,,0.00,VWS V14.01,2013-11-25 21:20:00,
2013-11-25 16:25:00,41.8,12.7,30.34,WSW,239,0.0,0.0,30,0.00,,,0.00,VWS V14.01,2013-11-25 21:25:00,
2013-11-25 16:30:00,41.8,13.4,30.34,SW,219,0.0,0.0,31,0.00,,,0.00,VWS V14.01,2013-11-25 21:30:00,
2013-11-25 16:35:00,41.6,13.9,30.34,SSW,198,0.0,0.0,32,0.00,,,0.00,VWS V14.01,2013-11-25 21:35:00,
2013-11-25 16:40:00,41.5,13.9,30.34,SW,218,0.0,0.0,32,0.00,,,0.00,VWS V14.01,2013-11-25 21:40:00,
2013-11-25 16:45:00,41.5,14.6,30.34,SW,218,0.0,0.0,33,0.00,,,0.00,VWS V14.01,2013-11-25 21:45:00,
2013-11-25 16:50:00,41.3,13.7,30.34,SW,218,0.0,0.0,32,0.00,,,0.00,VWS V14.01,2013-11-25 21:50:00,
2013-11-25 16:55:00,41.3,14.4,30.34,SSW,196,0.0,0.0,33,0.00,,,0.00,VWS V14.01,2013-11-25 21:55:00,
2013-11-25 17:00:00,41.2,15.0,30.34,SSW,196,0.0,0.0,34,0.00,,,0.00,VWS V14.01,2013-11-25 22:00:00,
2013-11-25 17:05:00,41.2,15.0,30.33,SSW,196,0.0,0.0,34,0.00,,,0.00,VWS V14.01,2013-11-25 22:05:00,
2013-11-25 17:10:00,41.1,14.9,30.33,SSW,196,0.0,0.0,34,0.00,,,0.00,VWS V14.01,2013-11-25 22:10:00,
2013-11-25 17:15:00,40.9,15.4,30.33,South,185,0.0,0.0,35,0.00,,,0.00,VWS V14.01,2013-11-25 22:15:00,
2013-11-25 17:20:00,40.8,15.3,30.34,South,185,0.0,0.0,35,0.00,,,0.00,VWS V14.01,2013-11-25 22:20:00,
2013-11-25 17:25:00,40.8,15.9,30.34,South,185,0.0,0.0,36,0.00,,,0.00,VWS V14.01,2013-11-25 22:25:00,
2013-11-25 17:30:00,40.6,16.4,30.34,South,183,0.0,0.0,37,0.00,,,0.00,VWS V14.01,2013-11-25 22:30:00,
2013-11-25 17:35:00,40.5,16.9,30.34,SSW,198,0.0,0.0,38,0.00,,,0.00,VWS V14.01,2013-11-25 22:35:00,
2013-11-25 17:40:00,40.3,16.7,30.34,SSW,198,0.0,0.0,38,0.00,,,0.00,VWS V14.01,2013-11-25 22:40:00,
2013-11-25 17:45:00,40.3,17.3,30.34,SSW,198,0.0,0.0,39,0.00,,,0.00,VWS V14.01,2013-11-25 22:45:00,
2013-11-25 17:50:00,40.2,17.2,30.33,South,179,0.0,0.0,39,0.00,,,0.00,VWS V14.01,2013-11-25 22:50:00,
2013-11-25 17:55:00,40.2,17.2,30.33,South,180,0.0,0.0,39,0.00,,,0.00,VWS V14.01,2013-11-25 22:55:00,
2013-11-25 18:00:00,40.1,17.1,30.33,South,183,0.0,0.0,39,0.00,,,0.00,VWS V14.01,2013-11-25 23:00:00,
2013-11-25 18:05:00,39.9,17.5,30.33,SSW,192,0.0,0.0,40,0.00,,,0.00,VWS V14.01,2013-11-25 23:05:00,
2013-11-25 18:10:00,39.9,17.5,30.33,SSW,192,0.0,0.0,40,0.00,,,0.00,VWS V14.01,2013-11-25 23:10:00,
2013-11-25 18:15:00,39.9,17.0,30.33,South,188,0.0,0.0,39,0.00,,,0.00,VWS V14.01,2013-11-25 23:15:00,
2013-11-25 18:20:00,39.8,18.0,30.33,South,188,0.0,0.0,41,0.00,,,0.00,VWS V14.01,2013-11-25 23:20:00,
2013-11-25 18:25:00,39.8,17.5,30.33,South,188,0.0,0.0,40,0.00,,,0.00,VWS V14.01,2013-11-25 23:25:00,
2013-11-25 18:30:00,39.6,17.3,30.33,South,188,0.0,0.0,40,0.00,,,0.00,VWS V14.01,2013-11-25 23:30:00,
2013-11-25 18:35:00,39.6,17.3,30.32,South,188,0.0,0.0,40,0.00,,,0.00,VWS V14.01,2013-11-25 23:35:00,
2013-11-25 18:40:00,39.6,17.3,30.32,South,188,0.0,0.0,40,0.00,,,0.00,VWS V14.01,2013-11-25 23:40:00,
2013-11-25 18:45:00,39.5,17.2,30.32,South,188,0.0,0.0,40,0.00,,,0.00,VWS V14.01,2013-11-25 23:45:00,
2013-11-25 18:50:00,39.5,17.2,30.32,South,188,0.0,0.0,40,0.00,,,0.00,VWS V14.01,2013-11-25 23:50:00,
2013-11-25 18:55:00,39.5,17.8,30.32,South,188,0.0,0.0,41,0.00,,,0.00,VWS V14.01,2013-11-25 23:55:00,
2013-11-25 19:00:00,39.5,17.2,30.32,South,188,0.0,0.0,40,0.00,,,0.00,VWS V14.01,2013-11-26 00:00:00,
2013-11-25 19:05:00,39.5,17.2,30.32,South,188,0.0,0.0,40,0.00,,,0.00,VWS V14.01,2013-11-26 00:05:00,
2013-11-25 19:10:00,39.3,17.6,30.32,South,188,0.0,0.0,41,0.00,,,0.00,VWS V14.01,2013-11-26 00:10:00,
2013-11-25 19:15:00,39.3,17.6,30.32,South,188,0.0,0.0,41,0.00,,,0.00,VWS V14.01,2013-11-26 00:15:00,
2013-11-25 19:20:00,39.3,17.6,30.32,South,188,0.0,0.0,41,0.00,,,0.00,VWS V14.01,2013-11-26 00:20:00,
2013-11-25 19:25:00,39.2,17.5,30.32,South,188,0.0,0.0,41,0.00,,,0.00,VWS V14.01,2013-11-26 00:25:00,
2013-11-25 19:30:00,39.2,17.5,30.32,South,188,0.0,0.0,41,0.00,,,0.00,VWS V14.01,2013-11-26 00:30:00,
2013-11-25 19:35:00,39.2,18.0,30.33,SW,224,0.0,0.0,42,0.00,,,0.00,VWS V14.01,2013-11-26 00:35:00,
2013-11-25 19:40:00,39.3,17.0,30.33,SSW,213,0.0,0.0,40,0.00,,,0.00,VWS V14.01,2013-11-26 00:40:00,
2013-11-25 19:45:00,39.3,17.6,30.33,SW,214,0.0,0.0,41,0.00,,,0.00,VWS V14.01,2013-11-26 00:45:00,
2013-11-25 19:50:00,39.3,17.6,30.34,SW,229,0.0,0.0,41,0.00,,,0.00,VWS V14.01,2013-11-26 00:50:00,
2013-11-25 19:55:00,39.3,18.7,30.34,SSW,207,0.0,0.0,43,0.00,,,0.00,VWS V14.01,2013-11-26 00:55:00,
2013-11-25 20:00:00,38.8,21.8,30.34,SSW,200,0.0,0.0,50,0.00,,,0.00,VWS V14.01,2013-11-26 01:00:00,
2013-11-25 20:05:00,37.9,22.8,30.35,SW,226,0.0,0.0,54,0.00,,,0.00,VWS V14.01,2013-11-26 01:05:00,
2013-11-25 20:10:00,37.5,24.5,30.35,SSW,200,0.0,0.0,59,0.00,,,0.00,VWS V14.01,2013-11-26 01:10:00,
2013-11-25 20:15:00,36.6,26.0,30.35,South,171,0.0,0.0,65,0.00,,,0.00,VWS V14.01,2013-11-26 01:15:00,
2013-11-25 20:20:00,35.8,27.3,30.34,South,182,0.0,0.0,71,0.00,,,0.00,VWS V14.01,2013-11-26 01:20:00,
2013-11-25 20:25:00,34.9,27.8,30.34,South,176,0.0,0.0,75,0.00,,,0.00,VWS V14.01,2013-11-26 01:25:00,
2013-11-25 20:30:00,34.1,28.0,30.34,South,176,0.0,0.0,78,0.00,,,0.00,VWS V14.01,2013-11-26 01:30:00,
2013-11-25 20:36:00,33.7,28.5,30.34,South,186,0.0,0.0,81,0.00,,,0.00,VWS V14.01,2013-11-26 01:36:00,
2013-11-25 20:40:00,32.8,29.9,30.32,South,186,0.0,0.0,89,0.00,,,0.00,VWS V14.01,2013-11-26 01:40:00,
2013-11-25 20:41:00,33.5,28.9,30.34,SW,217,0.0,0.0,83,0.00,,,0.00,VWS V14.01,2013-11-26 01:41:00,
2013-11-25 20:46:00,33.2,28.9,30.34,SW,220,0.0,0.0,84,0.00,,,0.00,VWS V14.01,2013-11-26 01:46:00,
2013-11-25 20:50:00,32.7,29.8,30.31,South,186,0.0,0.0,89,0.00,,,0.00,VWS V14.01,2013-11-26 01:50:00,
2013-11-25 20:51:00,33.2,29.2,30.34,South,186,0.0,0.0,85,0.00,,,0.00,VWS V14.01,2013-11-26 01:51:00,
2013-11-25 20:56:00,33.1,29.1,30.34,South,186,0.0,0.0,85,0.00,,,0.00,VWS V14.01,2013-11-26 01:56:00,
2013-11-25 21:00:00,32.5,29.6,30.30,South,186,0.0,0.0,89,0.00,,,0.00,VWS V14.01,2013-11-26 02:00:00,
2013-11-25 21:01:00,33.1,29.4,30.34,South,186,0.0,0.0,86,0.00,,,0.00,VWS V14.01,2013-11-26 02:01:00,
2013-11-25 21:06:00,33.1,29.4,30.33,South,186,0.0,0.0,86,0.00,,,0.00,VWS V14.01,2013-11-26 02:06:00,
2013-11-25 21:10:00,32.4,29.8,30.30,South,186,0.0,0.0,90,0.00,,,0.00,VWS V14.01,2013-11-26 02:10:00,
2013-11-25 21:11:00,32.9,29.5,30.33,South,186,0.0,0.0,87,0.00,,,0.00,VWS V14.01,2013-11-26 02:11:00,
2013-11-25 21:16:00,32.9,29.5,30.33,South,186,0.0,0.0,87,0.00,,,0.00,VWS V14.01,2013-11-26 02:16:00,
2013-11-25 21:20:00,32.4,29.8,30.29,South,186,0.0,0.0,90,0.00,,,0.00,VWS V14.01,2013-11-26 02:20:00,
2013-11-25 21:21:00,32.9,29.7,30.32,South,186,0.0,0.0,88,0.00,,,0.00,VWS V14.01,2013-11-26 02:21:00,
2013-11-25 21:26:00,32.9,29.7,30.32,South,186,0.0,0.0,88,0.00,,,0.00,VWS V14.01,2013-11-26 02:26:00,
2013-11-25 21:30:00,32.2,29.9,30.28,SSE,153,0.0,0.0,91,0.00,,,0.00,VWS V14.01,2013-11-26 02:30:00,
2013-11-25 21:31:00,32.8,29.6,30.32,South,186,0.0,0.0,88,0.00,,,0.00,VWS V14.01,2013-11-26 02:31:00,
2013-11-25 21:36:00,32.8,29.9,30.32,South,186,0.0,0.0,89,0.00,,,0.00,VWS V14.01,2013-11-26 02:36:00,
2013-11-25 21:40:00,32.2,29.9,30.28,SE,146,0.0,0.0,91,0.00,,,0.00,VWS V14.01,2013-11-26 02:40:00,
2013-11-25 21:41:00,32.8,29.9,30.32,South,186,0.0,0.0,89,0.00,,,0.00,VWS V14.01,2013-11-26 02:41:00,
2013-11-25 21:46:00,32.8,29.9,30.32,South,186,0.0,0.0,89,0.00,,,0.00,VWS V14.01,2013-11-26 02:46:00,
2013-11-25 21:50:00,32.2,29.9,30.28,SSE,152,0.0,0.0,91,0.00,,,0.00,VWS V14.01,2013-11-26 02:50:00,
2013-11-25 21:51:00,32.7,29.8,30.31,South,186,0.0,0.0,89,0.00,,,0.00,VWS V14.01,2013-11-26 02:51:00,
2013-11-25 21:56:00,32.7,29.8,30.31,South,186,0.0,0.0,89,0.00,,,0.00,VWS V14.01,2013-11-26 02:56:00,
2013-11-25 22:00:00,32.2,29.9,30.29,SSW,208,0.0,0.0,91,0.00,,,0.00,VWS V14.01,2013-11-26 03:00:00,
2013-11-25 22:01:00,32.7,29.8,30.31,South,186,0.0,0.0,89,0.00,,,0.00,VWS V14.01,2013-11-26 03:01:00,
2013-11-25 22:06:00,32.5,29.6,30.30,South,186,0.0,0.0,89,0.00,,,0.00,VWS V14.01,2013-11-26 03:06:00,
2013-11-25 22:10:00,32.2,29.9,30.29,SSW,196,0.0,0.0,91,0.00,,,0.00,VWS V14.01,2013-11-26 03:10:00,
2013-11-25 22:11:00,32.5,29.9,30.30,South,186,0.0,0.0,90,0.00,,,0.00,VWS V14.01,2013-11-26 03:11:00,
2013-11-25 22:16:00,32.4,29.8,30.30,South,186,0.0,0.0,90,0.00,,,0.00,VWS V14.01,2013-11-26 03:16:00,
2013-11-25 22:20:00,32.1,29.8,30.27,ESE,102,0.0,0.0,91,0.00,,,0.00,VWS V14.01,2013-11-26 03:20:00,
2013-11-25 22:21:00,32.4,29.8,30.29,South,186,0.0,0.0,90,0.00,,,0.00,VWS V14.01,2013-11-26 03:21:00,
2013-11-25 22:26:00,32.4,29.8,30.29,South,186,0.0,0.0,90,0.00,,,0.00,VWS V14.01,2013-11-26 03:26:00,
2013-11-25 22:30:00,32.1,30.0,30.25,SSE,150,0.0,0.0,92,0.00,,,0.00,VWS V14.01,2013-11-26 03:30:00,
2013-11-25 22:31:00,32.2,29.6,30.29,South,185,0.0,0.0,90,0.00,,,0.00,VWS V14.01,2013-11-26 03:31:00,
2013-11-25 22:36:00,32.2,29.9,30.28,SSE,153,0.0,0.0,91,0.00,,,0.00,VWS V14.01,2013-11-26 03:36:00,
2013-11-25 22:40:00,32.1,30.0,30.25,SSE,148,0.0,0.0,92,0.00,,,0.00,VWS V14.01,2013-11-26 03:40:00,
2013-11-25 22:41:00,32.2,29.9,30.28,SE,139,0.0,0.0,91,0.00,,,0.00,VWS V14.01,2013-11-26 03:41:00,
2013-11-25 22:46:00,32.2,29.9,30.28,SE,146,0.0,0.0,91,0.00,,,0.00,VWS V14.01,2013-11-26 03:46:00,
2013-11-25 22:50:00,32.1,30.0,30.26,SSE,148,0.0,0.0,92,0.00,,,0.00,VWS V14.01,2013-11-26 03:50:00,
2013-11-25 22:51:00,32.2,29.9,30.28,SSE,152,0.0,0.0,91,0.00,,,0.00,VWS V14.01,2013-11-26 03:51:00,
2013-11-25 22:55:00,31.9,29.8,30.26,SSE,154,0.0,0.0,92,0.00,,,0.00,VWS V14.01,2013-11-26 03:55:00,
2013-11-25 22:56:00,32.2,29.9,30.28,SSE,152,0.0,0.0,91,0.00,,,0.00,VWS V14.01,2013-11-26 03:56:00,
2013-11-25 23:00:00,31.9,29.8,30.25,SSE,154,0.0,0.0,92,0.00,,,0.00,VWS V14.01,2013-11-26 04:00:00,
2013-11-25 23:01:00,32.2,29.9,30.28,SSE,152,0.0,0.0,91,0.00,,,0.00,VWS V14.01,2013-11-26 04:01:00,
2013-11-25 23:06:00,32.2,29.9,30.29,SSW,208,0.0,0.0,91,0.00,,,0.00,VWS V14.01,2013-11-26 04:06:00,
2013-11-25 23:10:00,31.9,29.8,30.25,SSE,154,0.0,0.0,92,0.00,,,0.00,VWS V14.01,2013-11-26 04:10:00,
2013-11-25 23:11:00,32.2,29.9,30.29,SSW,196,0.0,0.0,91,0.00,,,0.00,VWS V14.01,2013-11-26 04:11:00,
2013-11-25 23:16:00,32.2,29.9,30.29,SSW,196,0.0,0.0,91,0.00,,,0.00,VWS V14.01,2013-11-26 04:16:00,
2013-11-25 23:20:00,32.1,30.0,30.24,SSE,153,0.0,0.0,92,0.00,,,0.00,VWS V14.01,2013-11-26 04:20:00,
2013-11-25 23:21:00,32.1,29.8,30.27,SSW,196,0.0,0.0,91,0.00,,,0.00,VWS V14.01,2013-11-26 04:21:00,
2013-11-25 23:26:00,32.1,29.8,30.27,ESE,103,0.0,0.0,91,0.00,,,0.00,VWS V14.01,2013-11-26 04:26:00,
2013-11-25 23:30:00,32.1,29.8,30.25,SE,134,0.0,0.0,91,0.00,,,0.00,VWS V14.01,2013-11-26 04:30:00,
2013-11-25 23:31:00,32.1,29.8,30.27,SSE,150,0.0,0.0,91,0.00,,,0.00,VWS V14.01,2013-11-26 04:31:00,
2013-11-25 23:36:00,32.1,30.0,30.25,SSE,150,0.0,0.0,92,0.00,,,0.00,VWS V14.01,2013-11-26 04:36:00,
2013-11-25 23:40:00,32.1,29.8,30.25,SE,134,0.0,0.0,91,0.00,,,0.00,VWS V14.01,2013-11-26 04:40:00,
2013-11-25 23:41:00,32.1,30.0,30.25,SE,138,0.0,0.0,92,0.00,,,0.00,VWS V14.01,2013-11-26 04:41:00,
2013-11-25 23:46:00,32.1,30.0,30.25,SSE,148,0.0,0.0,92,0.00,,,0.00,VWS V14.01,2013-11-26 04:46:00,
2013-11-25 23:50:00,32.1,29.8,30.25,SE,134,0.0,0.0,91,0.00,,,0.00,VWS V14.01,2013-11-26 04:50:00,
2013-11-25 23:51:00,32.1,30.0,30.26,SSE,148,0.0,0.0,92,0.00,,,0.00,VWS V14.01,2013-11-26 04:51:00,
2013-11-25 23:56:00,32.1,30.0,30.26,SSE,148,0.0,0.0,92,0.00,,,0.00,VWS V14.01,2013-11-26 04:56:00,